Hourly Weather Yerevan

Today, 4 August, Tuesday

Time Temperature Precipitation Wind Pressure Humidity
00:00 +23°C° 0 mm 2 mps 688 mmHg 50%
01:00 +23°C° 0 mm 2 mps 688 mmHg 50%
02:00 +21°C° 0 mm 2 mps 689 mmHg 50%
03:00 +21°C° 0 mm 2 mps 689 mmHg 50%
04:00 +21°C° 0 mm 2 mps 689 mmHg 51%
05:00 +21°C° 0 mm 2 mps 689 mmHg 51%
06:00 +21°C° 0 mm 2 mps 689 mmHg 52%
07:00 +23°C° 0 mm 2 mps 689 mmHg 47%
08:00 +25°C° 0 mm 2 mps 689 mmHg 41%
09:00 +27°C° 0 mm 2 mps 689 mmHg 36%
10:00 +28°C° 0 mm 1 mps 689 mmHg 35%
11:00 +29°C° 0 mm 1 mps 689 mmHg 34%
12:00 +31°C° 0 mm 1 mps 689 mmHg 32%
13:00 +31°C° 0 mm 2 mps 688 mmHg 32%
14:00 +32°C° 0 mm 2 mps 688 mmHg 32%
15:00 +32°C° 0 mm 2 mps 688 mmHg 32%
16:00 +33°C° 0 mm 4 mps 688 mmHg 35%
17:00 +32°C° 0 mm 5 mps 687 mmHg 38%
18:00 +30°C° 0 mm 6 mps 687 mmHg 41%
19:00 +28°C° 0 mm 5 mps 687 mmHg 44%
20:00 +27°C° 0 mm 4 mps 687 mmHg 48%
21:00 +25°C° 0 mm 3 mps 688 mmHg 52%
22:00 +24°C° 0 mm 3 mps 687 mmHg 53%
23:00 +23°C° 0 mm 2 mps 687 mmHg 55%

Tomorrow, 5 August, Wednesday

Time Temperature Precipitation Wind Pressure Humidity
00:00 +23°C° 0 mm 2 mps 687 mmHg 57%
01:00 +21°C° 0 mm 2 mps 687 mmHg 58%
02:00 +21°C° 0 mm 2 mps 687 mmHg 60%
03:00 +20°C° 0 mm 2 mps 687 mmHg 61%
04:00 +20°C° 0 mm 2 mps 687 mmHg 61%
05:00 +20°C° 0 mm 2 mps 686 mmHg 61%
06:00 +21°C° 0 mm 1 mps 686 mmHg 61%
07:00 +23°C° 0 mm 1 mps 687 mmHg 56%
08:00 +24°C° 0 mm 1 mps 687 mmHg 51%
09:00 +26°C° 0 mm 1 mps 687 mmHg 46%
10:00 +27°C° 0 mm 1 mps 686 mmHg 43%
11:00 +29°C° 0 mm 1 mps 686 mmHg 40%
12:00 +30°C° 0 mm 1 mps 686 mmHg 37%
13:00 +31°C° 0 mm 1 mps 686 mmHg 35%
14:00 +31°C° 0 mm 2 mps 686 mmHg 33%
15:00 +32°C° 0 mm 2 mps 685 mmHg 30%
16:00 +33°C° 0 mm 3 mps 685 mmHg 32%
17:00 +32°C° 0 mm 4 mps 685 mmHg 34%
18:00 +32°C° 0 mm 5 mps 685 mmHg 36%
19:00 +29°C° 0 mm 5 mps 686 mmHg 40%
20:00 +27°C° 0 mm 4 mps 686 mmHg 44%
21:00 +25°C° 0 mm 4 mps 686 mmHg 48%
22:00 +25°C° 0 mm 3 mps 686 mmHg 49%
23:00 +24°C° 0 mm 3 mps 686 mmHg 51%

Day after tomorrow, 6 August, Thursday

Time Temperature Precipitation Wind Pressure Humidity
00:00 +23°C° 0 mm 2 mps 686 mmHg 53%
01:00 +23°C° 0 mm 2 mps 686 mmHg 54%
02:00 +21°C° 0 mm 2 mps 686 mmHg 54%
03:00 +21°C° 0 mm 2 mps 686 mmHg 55%
04:00 +21°C° 0 mm 2 mps 686 mmHg 55%
05:00 +21°C° 0 mm 2 mps 687 mmHg 56%
06:00 +21°C° 0 mm 2 mps 687 mmHg 56%
07:00 +23°C° 0 mm 2 mps 687 mmHg 50%
08:00 +25°C° 0 mm 2 mps 688 mmHg 44%
09:00 +27°C° 0 mm 2 mps 688 mmHg 39%
10:00 +28°C° 0 mm 2 mps 688 mmHg 35%
11:00 +30°C° 0 mm 2 mps 688 mmHg 32%
12:00 +31°C° 0 mm 1 mps 688 mmHg 29%
13:00 +32°C° 0 mm 1 mps 688 mmHg 27%
14:00 +33°C° 0 mm 1 mps 688 mmHg 25%
15:00 +34°C° 0 mm 1 mps 688 mmHg 22%
16:00 +34°C° 0 mm 2 mps 688 mmHg 25%
17:00 +33°C° 0 mm 4 mps 688 mmHg 29%
18:00 +33°C° 0 mm 5 mps 688 mmHg 32%
19:00 +30°C° 0 mm 5 mps 688 mmHg 37%
20:00 +28°C° 0 mm 4 mps 688 mmHg 41%
21:00 +26°C° 0 mm 4 mps 689 mmHg 46%
22:00 +25°C° 0 mm 3 mps 689 mmHg 48%
23:00 +25°C° 0 mm 3 mps 689 mmHg 50%

7 August, Friday

Time Temperature Precipitation Wind Pressure Humidity
00:00 +24°C° 0 mm 2 mps 689 mmHg 52%
01:00 +23°C° 0 mm 2 mps 689 mmHg 54%
02:00 +23°C° 0 mm 2 mps 689 mmHg 55%
03:00 +22°C° 0 mm 1 mps 689 mmHg 57%
04:00 +21°C° 0 mm 2 mps 689 mmHg 57%
05:00 +21°C° 0 mm 2 mps 689 mmHg 57%
06:00 +21°C° 0 mm 2 mps 690 mmHg 57%
07:00 +24°C° 0 mm 1 mps 690 mmHg 51%
08:00 +26°C° 0 mm 1 mps 690 mmHg 45%
09:00 +28°C° 0 mm 1 mps 690 mmHg 39%
10:00 +29°C° 0 mm 1 mps 690 mmHg 37%
11:00 +31°C° 0 mm 1 mps 690 mmHg 34%
12:00 +32°C° 0 mm 1 mps 690 mmHg 31%
13:00 +33°C° 0 mm 1 mps 689 mmHg 29%
14:00 +34°C° 0 mm 2 mps 689 mmHg 27%
15:00 +35°C° 0 mm 2 mps 689 mmHg 25%
16:00 +35°C° 0 mm 2 mps 689 mmHg 28%
17:00 +34°C° 0 mm 3 mps 689 mmHg 30%
18:00 +34°C° 0 mm 3 mps 689 mmHg 32%
19:00 +31°C° 0 mm 3 mps 689 mmHg 37%
20:00 +29°C° 0 mm 3 mps 689 mmHg 42%
21:00 +27°C° 0 mm 3 mps 689 mmHg 48%
22:00 +26°C° 0 mm 3 mps 689 mmHg 49%
23:00 +25°C° 0 mm 2 mps 688 mmHg 51%

8 August, Saturday

Time Temperature Precipitation Wind Pressure Humidity
00:00 +24°C° 0 mm 2 mps 688 mmHg 52%
01:00 +24°C° 0 mm 2 mps 688 mmHg 54%
02:00 +23°C° 0 mm 1 mps 688 mmHg 55%
03:00 +22°C° 0 mm 1 mps 687 mmHg 57%
04:00 +23°C° 0 mm 1 mps 688 mmHg 57%
05:00 +23°C° 0 mm 1 mps 688 mmHg 56%
06:00 +23°C° 0 mm 1 mps 688 mmHg 56%
07:00 +25°C° 0 mm 1 mps 688 mmHg 51%
08:00 +27°C° 0 mm 1 mps 688 mmHg 45%
09:00 +29°C° 0 mm 1 mps 688 mmHg 40%
10:00 +30°C° 0 mm 2 mps 687 mmHg 37%
11:00 +32°C° 0 mm 2 mps 687 mmHg 34%
12:00 +34°C° 0 mm 2 mps 687 mmHg 30%
13:00 +35°C° 0 mm 2 mps 687 mmHg 28%
14:00 +36°C° 0 mm 2 mps 686 mmHg 26%
15:00 +37°C° 0 mm 2 mps 686 mmHg 23%
16:00 +37°C° 0 mm 2 mps 686 mmHg 25%
17:00 +36°C° 0 mm 2 mps 686 mmHg 26%
18:00 +36°C° 0 mm 2 mps 686 mmHg 27%
19:00 +34°C° 0 mm 3 mps 686 mmHg 33%
20:00 +30°C° 0 mm 3 mps 686 mmHg 39%
21:00 +28°C° 0 mm 4 mps 686 mmHg 45%
22:00 +27°C° 0 mm 3 mps 686 mmHg 47%
23:00 +26°C° 0 mm 2 mps 685 mmHg 50%

9 August, Sunday

Time Temperature Precipitation Wind Pressure Humidity
00:00 +25°C° 0 mm 1 mps 685 mmHg 52%
01:00 +25°C° 0 mm 2 mps 685 mmHg 54%
02:00 +24°C° 0 mm 2 mps 685 mmHg 55%
03:00 +24°C° 0 mm 2 mps 685 mmHg 57%
04:00 +24°C° 0 mm 2 mps 685 mmHg 57%
05:00 +24°C° 0 mm 1 mps 685 mmHg 57%
06:00 +24°C° 0 mm 1 mps 685 mmHg 58%
07:00 +26°C° 0 mm 1 mps 685 mmHg 51%
08:00 +28°C° 0 mm 1 mps 685 mmHg 45%
09:00 +30°C° 0 mm 1 mps 685 mmHg 38%
10:00 +32°C° 0 mm 1 mps 685 mmHg 34%
11:00 +34°C° 0 mm 2 mps 684 mmHg 30%
12:00 +36°C° 0 mm 2 mps 684 mmHg 26%
13:00 +37°C° 0 mm 2 mps 684 mmHg 23%
14:00 +38°C° 0 mm 2 mps 683 mmHg 21%
15:00 +39°C° 0 mm 2 mps 683 mmHg 19%
16:00 +38°C° 0 mm 2 mps 683 mmHg 20%
17:00 +38°C° 0 mm 3 mps 683 mmHg 22%
18:00 +38°C° 0 mm 3 mps 683 mmHg 23%
19:00 +35°C° 0 mm 3 mps 683 mmHg 30%
20:00 +33°C° 0 mm 3 mps 683 mmHg 36%
21:00 +29°C° 0 mm 4 mps 684 mmHg 43%
22:00 +28°C° 0 mm 4 mps 684 mmHg 45%
23:00 +28°C° 0 mm 4 mps 684 mmHg 46%
Show more